Other Public Products
Issued by NWS Grand Forks, ND

Home | Current Version | Previous Version | Text Only | Print | Product List | Glossary Off
Versions: 1 2 3 4 5 6 7 8 9 10 11 12 13 14 15 16 17 18 19 20 21 22 23 24 25 26 27 28 29 30 31 32 33 34 35 36 37 38 39 40 41 42 43 44 45 46 47 48 49 50

000
FPUS83 KFGF 250131
OPUFGF
PRAIRIE TO PINES WEATHER ROUNDUP
NATIONAL WEATHER SERVICE EASTERN NORTH DAKOTA/GRAND FORKS ND
800 PM CDT SUN MAY 24 2015

 **SATELLITE DATA USED TO AUGMENT SKY COVER AT AUTOMATED STATIONS**
 *****  WEATHER ACROSS EASTERN NORTH DAKOTA  *****

CITY           SKY/WX    TMP DP  RH WIND       PRES   REMARKS
GRAND FORKS    CLOUDY    71  48  43 S8        29.89F
GRAND FORKS AF CLOUDY    71  50  47 S8        29.90S
GRAND CITY NWS   N/A     66 N/A N/A SE3         N/A
BUXTON           N/A     70  50  48 E2          N/A
DEVILS LAKE    CLOUDY    70  48  46 E6        29.91S
FARGO          CLOUDY    68  54  60 SE3       29.88F
WAHPETON ARPT  CLOUDY    61  52  72 E8        29.89S
$$

 *****  WEATHER ACROSS CENTRAL AND WESTERN NORTH DAKOTA  *****

CITY           SKY/WX    TMP DP  RH WIND       PRES   REMARKS
JAMESTOWN      LGT RAIN  62  52  69 SE6       29.90S
BISMARCK       CLOUDY    64  51  62 E6        29.90S
MINOT          PTSUNNY   70  42  36 E12       29.90F
MINOT AFB      PTSUNNY   73  44  35 E9        29.89F
GARRISON         N/A     68  47  46 SE6       29.91F
WILLISTON      MOSUNNY   73  38  27 E10       29.90F
DICKINSON      CLOUDY    61  50  67 NE6       29.90F
HETTINGER      CLOUDY    59  49  69 NE12      29.91F
$$

 *****  OTHER OBSERVATIONS NORTHEAST NORTH DAKOTA  *****

CITY           SKY/WX    TMP DP  RH WIND       PRES   REMARKS
WALHALLA         N/A     73  45  35 CALM      29.90F
LANGDON        FAIR      70  43  37 E7        29.93S
CAVALIER       FAIR      73  45  35 SE3       29.89F
GRAFTON        FAIR      72  54  53 SE5       29.90S
CANDO          FAIR      70  48  46 SE7       29.92F
FORT TOTTEN      N/A     69  46  43 E2        29.95S
ROLLA          FAIR      70  41  35 SE13      29.94S
RUGBY          NOT AVBL
 ***** THE ABOVE OBSERVATIONS ARE NON NWS ARE NOT QUALITY
        CONTROLLED AND MAY MIS-REPORT RAIN FOR SNOW...
$$

 *****  OTHER OBSERVATIONS SOUTHEAST NORTH DAKOTA *****

CITY           SKY/WX    TMP DP  RH WIND       PRES   REMARKS
COOPERSTOWN    NOT AVBL
VALLEY CITY    CLOUDY    64  54  68 E7        29.90S
OAKES            N/A     61  57  88 E15       29.88S
GWINNER        NOT AVBL
SHEYENNE NWR     N/A     64  54  69 SE10      29.95S
BUFFALO        NOT AVBL
WYNDMERE         N/A     61  57  88 E6          N/A
 ***** THE ABOVE OBSERVATIONS ARE NON NWS ARE NOT QUALITY
       CONTROLLED AND MAY MIS-REPORT RAIN FOR SNOW...
$$

  *****  WEATHER ACROSS NORTHERN MINNESOTA  *****

CITY           SKY/WX    TMP DP  RH WIND       PRES   REMARKS
FLAG ISLAND    CLOUDY    66  46  48 S3        29.89F
WARROAD        CLOUDY    70  54  56 CALM      29.91F
ROSEAU         CLOUDY    73  50  43 SW6       29.91S
HALLOCK        CLOUDY    73  43  33 CALM      29.89S
THF RVR FALLS  CLOUDY    70  46  43 SE9       29.92S
HALSTAD          N/A     67  46  47 E3          N/A
FOSSTON        CLOUDY    64  46  52 CALM      29.92F
BAUDETTE       CLOUDY    71  47  42 SW3       29.91F
WASKISH        CLOUDY    64  55  72 CALM      29.92F
CROOKSTON      CLOUDY    70  48  46 SE7       29.91S
$$
  *****  WEATHER ACROSS CENTRAL AND WEST MINNESOTA  *****

CITY           SKY/WX    TMP DP  RH WIND       PRES   REMARKS
BEMIDJI        CLOUDY    65  50  58 SE6       29.92F
PARK RAPIDS    CLOUDY    64  53  67 E5        29.92F
WADENA         DRIZZLE   57  54  88 E5        29.91F
DETROIT LAKES  DRIZZLE   64  54  68 SE5       29.92S
MOORHEAD       CLOUDY    66  54  63 CALM      29.89F
FERGUS FALLS   CLOUDY    63  54  72 E7        29.89F
ELBOW LAKE     DRIZZLE   58  57  95 NE8       29.88S
MORRIS MN      DRIZZLE   59  57  94 E9        29.85F
STAPLES        CLOUDY    59  54  82 NE5       29.91F
WHEATON        LGT RAIN  57  55  94 NE9       29.89S
$$
  *****  WEATHER ELSEWHERE ACROSS MINNESOTA  *****

CITY           SKY/WX    TMP DP  RH WIND       PRES   REMARKS
DULUTH         LGT RAIN  63  54  72 S12       29.95S
INTRNTL FALLS  CLOUDY    68  49  50 CALM      29.91F
ELY            CLOUDY    68  45  42 CALM      29.94S
CLOQUET        LGT RAIN  61  54  77 CALM      29.95F
BRAINERD       LGT RAIN  60  56  86 E5        29.92F FOG
HIBBING        CLOUDY    65  49  56 CALM      29.94F
ALEXANDRIA     LGT RAIN  58  56  93 E12       29.89F FOG
SAINT CLOUD    LGT RAIN  58  57  97 NE8       29.87F FOG
MINNEAPOLIS    DRIZZLE   60  58  92 E10       29.85F
$$

  *****  WEATHER ACROSS SOUTH DAKOTA  *****

CITY           SKY/WX    TMP DP  RH WIND       PRES   REMARKS
SIOUX FALLS    CLOUDY    61  59  93 NE7       29.78F
BROOKINGS      CLOUDY    59  57  94 E9        29.82F
WATERTOWN      LGT RAIN  58  56  93 NE9       29.83F FOG
HURON          CLOUDY    60  58  92 E6        29.81F
SISSETON         N/A     59  58  96 E8        29.86F
ABERDEEN       LGT RAIN  60  57  89 E8        29.86S
MITCHELL       CLOUDY    62  60  93 NE8       29.80F
PIERRE         CLOUDY    58  57  97 E8        29.82S FOG
MOBRIDGE       LGT RAIN  59  58  96 NE9       29.84F
RAPID CITY     RAIN      55  53  93 NE10      29.85F FOG
$$

  *****  SOME WEATHER IN NEARBY STATES *****

CITY           SKY/WX    TMP DP  RH WIND       PRES   REMARKS
GLASGOW MT     PTSUNNY   72  40  31 SE15      29.91S
GREAT FALLS MT SUNNY     62  41  46 E8        29.97F
CHEYENNE WY    CLOUDY    50  40  68 NE7       29.87R
SCOTTSBLUFF NE CLOUDY    56  44  64 W13       29.80R
OMAHA NE       CLOUDY    69  61  75 SW3       29.77F
DES MOINES IA  CLOUDY    69  64  84 S9        29.78F
DAVENPORT IA   RAIN      69  66  90 SW16G30   29.87R FOG
CHICAGO IL     MOCLDY    64  61  90 E7        29.93S
EAU CLAIRE WI  LGT RAIN  58  56  93 E9        29.89F FOG
LA CROSSE WI   CLOUDY    61  57  87 SE6       29.87F
$$

  *****  SOME NATIONAL WEATHER *****

CITY           SKY/WX    TMP DP  RH WIND       PRES   REMARKS
LA GUARDIA NY  MOCLDY    67  51  56 S9        30.24R
RALEIGH NC     PTCLDY    73  55  53 CALM      30.30F
ATLANTA GA     PTCLDY    78  57  48 SE8       30.22S
NEW ORLEANS LA CLOUDY    82  72  71 SE12      30.01R
OKLAHOMA CITY  PTCLDY    67  64  90 E9        29.84R
ALBUQUERQUE NM PTSUNNY   66  35  31 N14       29.88F
SALT LAKE CITY PTSUNNY   65  43  44 VRB3      29.87F
LOS ANGELES CA MOSUNNY   63  53  70 W9        29.95F
BOISE ID       FAIR      77  41  27 W15       29.79F
SEATTLE WA     PTSUNNY   61  50  67 W9        30.05S
$$

*** WEATHER ACROSS MANITOBA...SASKATCHEWAN AND ONTARIO ***
                ***ONTARIO***

CITY           SKY/WX    TMP DP  RH WIND       PRES   REMARKS
GERALDTON      MOCLDY    72  41  33 W3        29.92S
THUNDER BAY    CLOUDY    72  45  37 SW7       29.91F
SIOUX LOOKOUT  MOCLDY    72  45  37 VRB2      29.91S
TORONTO        CLOUDY    75  45  33 SW13      30.13F
BIG TROUT LK   CLEAR     57  32  38 NE12G18   29.91R
PICKLE LAKE    PTCLDY    70  25  18 NW6       29.91S
DRYDEN         CLEAR     75  37  25 NW3       29.90F
KENORA         CLOUDY    75  46  35 W6        29.92S
$$
                *** MANITOBA***

CITY           SKY/WX    TMP DP  RH WIND       PRES   REMARKS
BRANDON        MOSUNNY   77  41  27 SE9       29.90F
DAUPHIN        SUNNY     79  41  25 SE10      29.88F
ISLAND LAKE    MOSUNNY   70  32  24 W5        29.89F
PILOT MOUND      N/A     73  39  29 SE12        N/A
THE PAS        MOSUNNY   75  34  22 N3        29.89F
THOMPSON       MOSUNNY   68  37  32 NE10G20   29.89R
WINNIPEG       CLOUDY    77  48  36 NE6       29.90F
LYNN LAKE      SUNNY     66  37  34 E10G17    29.90S
CHURCHILL      MOSUNNY   34  27  75 NE13      30.05S WCI  25
GILLAM         MOSUNNY   52  30  43 NE9       29.96R
$$
                ***SASKATCHEWAN***

CITY           SKY/WX    TMP DP  RH WIND       PRES   REMARKS
ESTEVAN        PTSUNNY   75  36  23 E9        29.91F
KINDERSLEY     PTSUNNY   77  27  15 CALM      29.93F
LLOYDMINSTER   PTSUNNY   75  27  16 W5        29.92F
PRINCE ALBERT  MOSUNNY   79  39  24 NW12G17   29.89F
REGINA         MOSUNNY   75  36  23 CALM      29.92F


USA.gov is the U.S. government's official web portal to all federal, state and local government web resources and services.